Zurück zum Katalog

TITAN 3C TRANSTAGE R/B

LostMEO
NORAD 2660·ROCKET BODY·🇺🇸 United States

Gestartet Jan 18, 1967 von Cape Canaveral Space Force Station

Loading…

Nächste Überflüge (nächste 24 Stunden)

TLE

VeraltetSource: Space-Track

Epoche: Jul 19, 1995, 00:00 UTC

1  2660U 67003J   95200.00000000 -.00000144 +00000-0 +10000-3 0  9990
2  2660 011.3730 343.9923 0029345 194.5544 187.0632 01.08288989033702

Verfolge TITAN 3C TRANSTAGE R/B in Echtzeit mit AllMySat

Download on the App Store